www.pogodaiklimat.ru

ПОГОДА в Кайлуа-Коне, HI

  • Прогноз погоды в Кайлуа-Коне
  • Монитор погоды в Кайлуа-Коне
  • Климат в Кайлуа-Коне

АРХИВ ПОГОДЫ в Кайлуа-Коне

Время (UTC), дата Ветер
(напр.,м/с)
 
Видим.   Явления Облачность Т
(С)
Тd
(С)
f
(%)
Тe
(С)
Тes
(С)
Комфортность

P
(гПа)

Po
(гПа)
Тmin
(С)
Tmax
(С)
R
(мм)
SD
(см)
21:53 23.05 З  16 км    2/2 1800 м  +29.4  +20.0  57  +36  +46  очень
душно 
1015.9  1014.2         
22:53 23.05 З  16 км    5/5 1500 м  +29.4  +21.1  61  +37  +42  очень
душно 
1015.5  1013.9  +26.7  +30.0     
23:53 23.05 СЗ  16 км    5/5 1500 м  +29.4  +20.6  59  +36  +41  очень
душно 
1015.1  1013.6         
00:53 24.05 СЗ  16 км    5/5 1500 м  +28.9  +20.6  61  +36  +40  очень
душно 
1014.8  1013.2         
01:53 24.05 З  16 км    5/5 1500 м  +28.3  +21.1  65  +36  +38  очень
душно 
1014.7  1012.9         
02:53 24.05 З  16 км    5/5 1500 м  +28.3  +20.6  63  +35  +37  очень
душно 
1015.0  1013.2         
03:53 24.05 Ю  16 км    5/5 1800 м  +27.2  +20.6  67  +34  +34  очень
душно 
1015.6  1013.9         
04:53 24.05 Ю  16 км    5/5 1800 м  +26.7  +20.0  67  +33  +33  очень
душно 
1016.2  1014.6  +26.7  +30.0     
05:53 24.05 ЮВ  16 км    5/5 1800 м  +26.7  +20.6  69  +33  +33  очень
душно 
1017.0  1015.2         
06:53 24.05 ЮВ  16 км    ясно  +26.1  +20.0  69  +32  +32  очень
душно 
1017.3  1015.6         
07:53 24.05 ЮВ  16 км    ясно  +26.1  +20.0  69  +32  +32  очень
душно 
1017.5  1015.9         
08:53 24.05 ЮВ  16 км    ясно  +25.6  +20.0  71  +31  +31  очень
душно 
1017.5  1015.9         
09:53 24.05 В  16 км    ясно  +25.6  +19.4  69  +31  +31  очень
душно 
1017.0  1015.2         
10:53 24.05 СВ  16 км    ясно  +24.4  +18.9  71  +29  +29  душно  1016.8  1015.2  +24.4  +27.2     
11:53 24.05 СВ  16 км    ясно  +23.9  +18.3  71  +28  +28  душно  1016.5  1014.9         
12:53 24.05 СВ  16 км    ясно  +23.3  +18.3  73  +29  +29  душно  1016.9  1015.2         
13:53 24.05 СВ  16 км    ясно  +23.9  +18.3  71  +28  +28  душно  1017.1  1015.2         
14:53 24.05 СВ  16 км    5/5 1200 м  +23.9  +18.3  71  +28  +28  душно  1017.5  1015.9         
15:53 24.05 СЗ  16 км    8/8 1650 м  +26.7  +18.3  60  +31  +31  душно  1018.0  1016.3         
16:53 24.05 С  16 км    5/5 1800 м  +27.8  +19.4  60  +33  +34  очень
душно 
1018.3  1016.6  +23.3  +27.8     
17:53 24.05 СЗ  16 км    5/5 1800 м  +29.4  +19.4  55  +35  +36  очень
душно 
1018.3  1016.6         
18:53 24.05 СЗ  16 км    5/5 1800 м  +29.4  +19.4  55  +35  +36  очень
душно 
1018.0  1016.3         
19:53 24.05 СЗ  16 км    5/5 1500 м  +29.4  +19.4  55  +35  +39  очень
душно 
1017.7  1015.9         
20:53 24.05 З  16 км    5/5 1500 м
[средняя] 
+29.4  +20.0  57  +36  +41  очень
душно 
1017.3  1015.6         
21:53 24.05 ЮЗ  16 км    5/0 2100 м
[средняя] 
+29.4  +20.0  57  +36  +43  очень
душно 
1016.6  1014.9         
22:53 24.05 ЮЗ  16 км    5/5 1650 м  +30.0  +20.6  57  +37  +40  очень
душно 
1016.1  1014.6  +27.8  +30.0     
23:53 24.05 ЮЗ  16 км    5/5 1650 м  +29.4  +20.6  59  +36  +40  очень
душно 
1015.7  1013.9         
00:53 25.05 Ю  16 км    5/5 1650 м  +29.4  +20.6  59  +36  +38  очень
душно 
1015.4  1013.6         
01:53 25.05 Ю  16 км    5/5 1650 м
[средняя] 
+28.9  +21.1  63  +36  +37  очень
душно 
1015.2  1013.6         
02:53 25.05 Ю  16 км    8/8 1500 м  +28.3  +21.7  67  +36  +36  очень
душно 
1015.4  1013.9         
03:53 25.05 ЮВ  16 км    8/8 1500 м
[средняя] 
+27.2  +21.1  69  +34  +34  очень
душно 
1016.3  1014.6         
04:53 25.05 Ю  16 км    8/8 1500 м
[средняя] 
+26.7  +21.1  71  +34  +34  очень
душно 
1017.1  1015.6  +26.7  +30.0     
05:53 25.05 Ю  16 км    8/8 1410 м  +26.7  +21.1  71  +34  +34  очень
душно 
1017.3  1015.6         
06:53 25.05 ЮВ  16 км    8/8 1170 м  +26.7  +19.4  64  +32  +32  очень
душно 
1017.7  1015.9         
07:53 25.05   16 км    8/8 1380 м  +26.7  +18.3  60  +31  +31  душно  1017.5  1015.9         
08:53 25.05 З  16 км    2/2 1470 м  +26.7  +20.6  69  +33  +33  очень
душно 
1017.1  1015.6         
09:53 25.05 З  16 км    8/8 1500 м  +26.1  +21.7  77  +34  +34  очень
душно 
1016.6  1014.9         
10:53 25.05 З  16 км    ясно  +25.6  +21.1  76  +32  +32  очень
душно 
1016.2  1014.6  +25.6  +27.2     
11:53 25.05 В  16 км    ясно  +24.4  +20.0  76  +30  +30  очень
душно 
1015.6  1013.9         
12:53 25.05 В  16 км    ясно  +23.9  +18.9  74  +29  +29  душно  1015.4  1013.9         
13:53 25.05 В  16 км    ясно  +23.9  +18.9  74  +29  +29  душно  1015.5  1013.9         
14:53 25.05 В  16 км    5/5 1500 м  +23.9  +18.3  71  +28  +28  душно  1016.0  1014.2         
15:53 25.05 СВ  16 км    8/8 1440 м  +25.6  +18.9  66  +31  +31  очень
душно 
1016.9  1015.2         
16:53 25.05 ЮВ  16 км    5/5 1950 м  +27.8  +19.4  60  +33  +34  очень
душно 
1017.3  1015.6  +23.3  +27.8     
17:53 25.05 Ю  16 км    ясно  +28.3  +20.6  63  +35  +38  очень
душно 
1017.7  1015.9         
18:53 25.05 Ю  16 км    5/5 1650 м  +29.4  +20.6  59  +36  +38  очень
душно 
1017.5  1015.9         
19:53 25.05 Ю  16 км    5/5 1650 м  +28.9  +20.6  61  +36  +38  очень
душно 
1017.3  1015.6         
20:53 25.05 Ю  16 км    5/0 2100 м
[средняя] 
+28.9  +18.9  55  +34  +38  очень
душно 
1017.1  1015.2         

 

Местоположение метеостанции Keahole Airport: широта 19.7408 долгота -156.0506 высота над уровнем моря 13 м.

В архиве по умолчанию представлена погода в Кайлуа-Коне за последние 1-2 суток. Обновление информации о фактической погоде в базе происходит ежечасно! Архивные данные за месяц целиком и за предыдущие месяцы Вы можете получить, выбрав интересующий диапазон дат из раскрывающегося списка и нажав кнопку "Ввод!".

Внимание! Архив погоды МЕТАР в базе сайта хранится не более 60 дней. Нет смысла пытаться выбрать более раннюю дату.

Внимание! Время в таблицах - всемирное. Для получения местного времени необходимо прибавить поправку, которая в Кайлуа-Коне равна -10 ч.

Ветер - указаны скорость ветра в м/с и направление, откуда дует ветер: С - северный, СВ - северо-восточный, В - восточный, ЮВ - юго-восточный, Ю - южный, ЮЗ - юго-западный, З - западный, СЗ - северо-западный.
Видимость - горизонтальная дальность видимости в метрах или километрах. При видимости от 1 до 10 км при отсутствии осадков обычно наблюдается дымка, при ухудшении видимости до 1 км и менее - туман. В сухую погоду видимость может ухудшаться дымом, пылью или мглою.
Атмосферные явления - указаны явления, наблюдавшиеся в указанный момент времени.
Облачность - указаны через наклонную черту верхняя и нижняя облачность в баллах и высота нижней границы облаков в метрах. Внимание: облачность, как и прочие метеорологические величины в США измеряются автоматическими метеостанциями. Указанные значения в баллах носят условный характер и показывают процент времени, в течение которого, в среднем, лазерный луч высотомера отражался от облаков обратно.
T - Температура воздуха - температура, измеренная на высоте 2 м над землей.
Td - Температура точки росы - температура, при понижении до которой содержащийся в воздухе водяной пар достигнет насыщения.
f - Относительная влажность воздуха - влажноcть воздуха, измеренная на высоте 2 м над землей.
Te - Эффективная температура - температура, которую ощущает одетый по сезону человек в тени. Характеристика душности погоды. При расчете учитывается влияние влажности воздуха и скорости ветра на теплоощущения человека.
Tes - Эффективная температура на солнце - температура, которую ощущает человек, с поправкой на солнечный нагрев. Характеристика знойности погоды. Зависит от высоты солнца над горизонтом, облачности и скорости ветра. Ночью, в пасмурную погоду, а также при ветре 12 м/с и более поправка равна нулю.
P - Атмосферное давление - приведенное к уровню моря атмосферное давление.
Po - Атмосферное давление - измеренное на уровне метеостанции атмосферное давление.
Tmin - Минимальная температура - минимум температуры воздуха на высоте 2 м над землей.
Tmax - Максимальная температура - максимум температуры воздуха на высоте 2 м над землей.
R - Количество осадков - Количество выпавших осадков за 3 или 6 часов, мм.
SD - Снежный покров - Высота снежного покрова, см.